Montevideo, MN

4:58 PM CST on February 21, 2017 (GMT -0600)
Montevideo-Chippewa County

Weather History for KMVE - December, 2012

Change the Weather History Date:

Monday, December 24, 2012

  Actual Average Record
Temperature  
Mean Temperature 4 °F -  
Max Temperature 14 °F 22 °F 48 °F (2011)
Min Temperature -7 °F 4 °F -24 °F (1983)
Degree Days  
Heating Degree Days 60    
Moisture  
Dew Point -1 °F    
Average Humidity 86    
Maximum Humidity 93    
Minimum Humidity 78    
Precipitation  
Precipitation 0.00 in - - ()
Sea Level Pressure  
Sea Level Pressure 30.18 in    
Wind  
Wind Speed 10 mph (North)    
Max Wind Speed 16 mph    
Max Gust Speed 23 mph    
Visibility 8 miles    
Events Snow    
Averages and records for this station are not official NWS values.
T = Trace of Precipitation, MM = Missing Value Source: NWS Daily Summary

Daily Weather History Graph

Daily Weather History Graph

Search for Another Location

Airport or City:

Trip Planner

Search our weather history database for the weather conditions in past years. The results will help you decide how hot, cold, wet, or windy it might be!

Date:

Astronomy

Dec. 24, 2012 Rise Set
Actual Time 7:59 AM CST 4:46 PM CST
Civil Twilight 7:25 AM CST 5:19 PM CST
Nautical Twilight 6:48 AM CST 5:57 PM CST
Astronomical Twilight 6:12 AM CST 6:32 PM CST
Moon 2:17 PM CST (12/24) 4:35 AM CST (12/24)
Length of Visible Light 9h 54m
Length of Day
8h 46m
Waxing Gibbous, 88% of the Moon is Illuminated
Dec 24
Waxing Gibbous
Dec 28
Full
Jan 4
Last Quarter
Jan 11
New
Jan 18
First Quarter

Hourly Weather History & Observations

Time (CST) Temp. Windchill Dew Point Humidity Pressure Visibility Wind Dir Wind Speed Gust Speed Precip Events Conditions
12:14 AM 12.2 °F 2.9 °F 10.4 °F 92% 30.04 in 10.0 mi North 5.8 mph - N/A   Overcast
12:34 AM 12.2 °F 1.7 °F 10.4 °F 92% 30.05 in 10.0 mi NNW 6.9 mph - N/A   Overcast
12:54 AM 12.2 °F 2.9 °F 10.4 °F 92% 30.05 in 10.0 mi North 5.8 mph - N/A   Overcast
1:14 AM 12.2 °F 4.3 °F 10.4 °F 92% 30.04 in 10.0 mi North 4.6 mph - N/A   Overcast
1:34 AM 12.2 °F 2.9 °F 10.4 °F 92% 30.03 in 10.0 mi North 5.8 mph - N/A Snow Light Snow
1:54 AM 12.2 °F 2.9 °F 10.4 °F 92% 30.04 in 10.0 mi North 5.8 mph - N/A   Overcast
2:14 AM 12.2 °F 1.7 °F 10.4 °F 92% 30.04 in 10.0 mi North 6.9 mph - N/A   Overcast
2:34 AM 14.0 °F 2.9 °F 12.2 °F 93% 30.04 in 10.0 mi NNE 8.1 mph - N/A   Overcast
2:54 AM 14.0 °F 2.0 °F 12.2 °F 93% 30.05 in 10.0 mi NNE 9.2 mph - N/A   Overcast
3:14 AM 14.0 °F 0.5 °F 12.2 °F 93% 30.05 in 7.0 mi NNE 11.5 mph - N/A Snow Light Snow
3:33 AM 14.0 °F 1.2 °F 12.2 °F 93% 30.05 in 3.0 mi NNE 10.4 mph - N/A Snow Light Snow
3:54 AM 14.0 °F 1.2 °F 12.2 °F 93% 30.06 in 3.0 mi NNE 10.4 mph - N/A Snow Light Snow
4:14 AM 14.0 °F 1.2 °F 12.2 °F 93% 30.06 in 3.0 mi NNE 10.4 mph - N/A Snow Light Snow
4:34 AM 14.0 °F 0.5 °F 12.2 °F 93% 30.07 in 4.0 mi NNE 11.5 mph - N/A Snow Light Snow
4:54 AM 12.2 °F -1.0 °F 10.4 °F 92% 30.07 in 4.0 mi NNE 10.4 mph 18.4 mph N/A Snow Light Snow
5:14 AM 12.2 °F -1.8 °F 10.4 °F 92% 30.07 in 4.0 mi NE 11.5 mph - N/A Snow Light Snow
5:34 AM 12.2 °F -2.5 °F 10.4 °F 92% 30.08 in 4.0 mi NNE 12.7 mph - N/A Snow Light Snow
5:54 AM 12.2 °F -1.0 °F 10.4 °F 92% 30.08 in 5.0 mi NNE 10.4 mph - N/A Snow Light Snow
6:14 AM 10.4 °F -4.8 °F 8.6 °F 92% 30.09 in 5.0 mi NNE 12.7 mph - N/A Snow Light Snow
6:34 AM 8.6 °F -5.5 °F 6.8 °F 92% 30.09 in 10.0 mi North 10.4 mph - N/A   Overcast
6:54 AM 8.6 °F -6.3 °F 6.8 °F 92% 30.09 in 10.0 mi North 11.5 mph - N/A   Overcast
7:14 AM 6.8 °F -8.6 °F 3.2 °F 85% 30.11 in 7.0 mi NNW 11.5 mph - N/A   Overcast
7:34 AM 3.2 °F -13.9 °F 1.4 °F 92% 30.11 in 10.0 mi NNW 12.7 mph - N/A   Overcast
7:54 AM 1.4 °F -16.1 °F -0.4 °F 92% 30.12 in 10.0 mi NNW 12.7 mph - N/A Snow Light Snow
8:14 AM 1.4 °F -16.1 °F -2.2 °F 85% 30.14 in 10.0 mi NNW 12.7 mph - N/A   Overcast
8:34 AM -0.4 °F -18.4 °F -2.2 °F 92% 30.15 in 4.0 mi NNW 12.7 mph - N/A Snow Light Snow
8:54 AM -0.4 °F -19.2 °F -4.0 °F 85% 30.15 in 3.0 mi North 13.8 mph 19.6 mph N/A Snow Light Snow
9:14 AM -0.4 °F -19.9 °F -4.0 °F 85% 30.16 in 1.0 mi North 15.0 mph - N/A Snow Light Snow
9:34 AM -0.4 °F -19.9 °F -4.0 °F 85% 30.17 in 1.2 mi North 15.0 mph - N/A Snow Heavy Snow
9:54 AM -0.4 °F -19.9 °F -5.8 °F 78% 30.18 in 1.2 mi North 15.0 mph - N/A Snow Snow
10:14 AM -0.4 °F -20.5 °F -5.8 °F 78% 30.19 in 0.8 mi North 16.1 mph 21.9 mph N/A Snow Heavy Snow
10:34 AM -0.4 °F -19.2 °F -5.8 °F 78% 30.20 in 1.0 mi North 13.8 mph - N/A Snow Snow
10:54 AM -0.4 °F -20.5 °F -5.8 °F 78% 30.20 in 0.8 mi North 16.1 mph 23.0 mph N/A Snow Heavy Snow
11:14 AM -0.4 °F -19.9 °F -5.8 °F 78% 30.20 in 1.5 mi North 15.0 mph - N/A Snow Snow
11:34 AM -0.4 °F -20.5 °F -5.8 °F 78% 30.20 in 4.0 mi North 16.1 mph - N/A Snow Light Snow
11:54 AM -0.4 °F -19.2 °F -5.8 °F 78% 30.19 in 3.0 mi North 13.8 mph - N/A Snow Light Snow
12:14 PM -0.4 °F -19.9 °F -5.8 °F 78% 30.18 in 3.0 mi North 15.0 mph - N/A Snow Light Snow
12:34 PM -0.4 °F -18.4 °F -5.8 °F 78% 30.19 in 7.0 mi North 12.7 mph - N/A Snow Light Snow
12:54 PM -0.4 °F -19.9 °F -5.8 °F 78% 30.18 in 5.0 mi North 15.0 mph - N/A Snow Light Snow
1:14 PM -0.4 °F -17.6 °F -5.8 °F 78% 30.18 in 7.0 mi NNE 11.5 mph - N/A   Clear
1:34 PM -0.4 °F -19.9 °F -5.8 °F 78% 30.19 in 5.0 mi North 15.0 mph - N/A Snow Light Snow
1:54 PM -0.4 °F -18.4 °F -5.8 °F 78% 30.20 in 10.0 mi North 12.7 mph - N/A   Clear
2:14 PM -0.4 °F -19.9 °F -5.8 °F 78% 30.20 in 10.0 mi North 15.0 mph - N/A   Clear
2:34 PM -0.4 °F -19.9 °F -5.8 °F 78% 30.20 in 10.0 mi North 15.0 mph - N/A   Scattered Clouds
2:54 PM -0.4 °F -19.9 °F -5.8 °F 78% 30.20 in 10.0 mi North 15.0 mph - N/A   Scattered Clouds
3:14 PM -0.4 °F -19.9 °F -5.8 °F 78% 30.21 in 7.0 mi North 15.0 mph - N/A Snow Light Snow
3:34 PM -0.4 °F -19.2 °F -5.8 °F 78% 30.21 in 7.0 mi North 13.8 mph 21.9 mph N/A   Mostly Cloudy
3:54 PM -0.4 °F -19.9 °F -5.8 °F 78% 30.21 in 10.0 mi North 15.0 mph - N/A   Mostly Cloudy
4:14 PM -0.4 °F -19.9 °F -5.8 °F 78% 30.23 in 10.0 mi North 15.0 mph - N/A   Mostly Cloudy
4:34 PM -0.4 °F -16.7 °F -5.8 °F 78% 30.24 in 10.0 mi North 10.4 mph - N/A   Mostly Cloudy
4:54 PM -2.2 °F -22.9 °F -5.8 °F 85% 30.25 in 10.0 mi North 16.1 mph - N/A   Overcast
5:14 PM -2.2 °F -19.9 °F -5.8 °F 85% 30.26 in 10.0 mi North 11.5 mph 17.3 mph N/A   Mostly Cloudy
5:34 PM -2.2 °F -18.9 °F -7.6 °F 78% 30.26 in 10.0 mi NNW 10.4 mph - N/A   Mostly Cloudy
5:54 PM -4.0 °F -21.2 °F -7.6 °F 85% 30.27 in 10.0 mi North 10.4 mph - N/A   Mostly Cloudy
6:14 PM -4.0 °F -21.2 °F -7.6 °F 85% 30.27 in 10.0 mi North 10.4 mph - N/A   Mostly Cloudy
6:34 PM -4.0 °F -21.2 °F -7.6 °F 85% 30.29 in 10.0 mi North 10.4 mph - N/A   Mostly Cloudy
6:54 PM -4.0 °F -21.2 °F -7.6 °F 85% 30.29 in 10.0 mi North 10.4 mph - N/A   Scattered Clouds
7:14 PM -4.0 °F -23.0 °F -7.6 °F 85% 30.30 in 10.0 mi North 12.7 mph 17.3 mph N/A   Mostly Cloudy
7:34 PM -4.0 °F -22.1 °F -7.6 °F 85% 30.31 in 10.0 mi North 11.5 mph - N/A   Overcast
7:54 PM -5.8 °F -23.4 °F -7.6 °F 92% 30.31 in 10.0 mi North 10.4 mph - N/A   Overcast
8:14 PM -5.8 °F -22.4 °F -7.6 °F 92% 30.32 in 10.0 mi North 9.2 mph - N/A   Overcast
8:34 PM -5.8 °F -23.4 °F -7.6 °F 92% 30.32 in 10.0 mi North 10.4 mph - N/A   Overcast
8:54 PM -5.8 °F -23.4 °F -9.4 °F 84% 30.31 in 10.0 mi North 10.4 mph - N/A   Overcast
9:14 PM -5.8 °F -23.4 °F -9.4 °F 84% 30.31 in 10.0 mi North 10.4 mph - N/A   Overcast
9:34 PM -5.8 °F -24.4 °F -9.4 °F 84% 30.31 in 10.0 mi North 11.5 mph - N/A   Overcast
9:54 PM -5.8 °F -25.2 °F -9.4 °F 84% 30.31 in 10.0 mi North 12.7 mph - N/A   Overcast
10:14 PM -5.8 °F -23.4 °F -9.4 °F 84% 30.32 in 10.0 mi North 10.4 mph - N/A   Overcast
10:34 PM -5.8 °F -22.4 °F -9.4 °F 84% 30.33 in 10.0 mi North 9.2 mph - N/A   Overcast
10:54 PM -5.8 °F -23.4 °F -9.4 °F 84% 30.34 in 10.0 mi North 10.4 mph - N/A   Mostly Cloudy
11:14 PM -5.8 °F -23.4 °F -9.4 °F 84% 30.35 in 10.0 mi North 10.4 mph - N/A   Mostly Cloudy
11:34 PM -5.8 °F -21.2 °F -9.4 °F 84% 30.35 in 10.0 mi North 8.1 mph - N/A   Overcast
11:54 PM -7.6 °F -24.6 °F -9.4 °F 92% 30.36 in 10.0 mi North 9.2 mph - N/A   Overcast